Wind_Speed
28 28 28 29 29 30 30 31 31 32 33 34 34 35 36 36 37 38 39 39 40 40 40 39 39 39 39 40 41 42 42 41 40 39 36 30 34 37 35 33 32 31 32 32 32 33 33 33 32 31 33 35 38 36 35 36 34 34 36 40 46 47 46 44 42 39 37 35 33 30 24 22 19 16 18 22 25 27 29 31 28 20 16 18 20 21 19 17
27 27 28 28 29 29 29 30 30 31 32 32 33 34 34 35 36 36 38 38 39 39 39 39 38 38 38 39 40 41 41 40 40 37 32 32 36 35 32 32 31 31 32 30 29 30 30 30 28 30 32 35 36 34 34 35 35 38 40 43 49 49 47 44 40 36 34 31 29 26 21 20 21 19 23 25 25 26 29 32 30 24 19 18 24 27 23 22
26 26 26 26 27 27 28 28 29 29 30 31 32 32 33 34 35 35 36 37 38 38 38 38 37 37 37 38 40 41 39 38 38 35 33 35 35 32 31 31 30 31 31 29 28 29 29 27 28 31 33 35 35 33 34 36 36 39 41 45 50 47 44 41 37 33 31 28 26 23 19 21 21 19 23 24 22 24 27 28 28 25 21 22 28 27 22 20
27 26 26 25 25 25 25 26 26 27 28 29 30 31 32 32 33 34 35 35 36 36 36 36 36 37 37 37 38 40 39 37 36 34 35 36 34 32 32 30 30 30 29 29 29 29 29 28 30 33 35 36 34 33 36 37 37 39 42 47 47 42 41 38 34 31 28 27 25 22 20 23 21 17 19 17 18 22 21 22 23 20 22 28 27 22 19 19
26 26 25 25 25 25 24 24 24 25 25 26 27 29 30 31 32 32 33 34 34 35 35 34 34 35 37 37 36 39 37 33 33 34 35 35 33 32 32 30 31 30 29 29 29 29 29 29 31 33 36 37 35 35 38 37 37 41 44 46 42 39 40 36 32 30 27 26 26 24 23 24 22 19 17 15 15 16 15 15 15 15 24 29 24 19 18 18
23 23 24 24 24 25 25 25 25 24 24 24 25 26 26 28 29 31 32 32 33 33 33 33 32 33 35 36 36 37 36 30 26 28 31 34 35 33 33 32 31 31 30 29 29 30 30 30 32 35 36 36 36 38 38 36 37 42 44 43 40 39 38 33 30 28 26 25 26 25 24 25 25 24 22 20 15 13 13 12 12 13 18 21 19 19 19 17
23 23 24 24 24 25 25 26 26 25 25 25 24 24 24 25 26 28 29 30 31 31 32 32 31 32 33 35 36 36 39 33 25 24 27 31 35 36 36 35 33 32 30 28 28 29 30 32 34 35 36 36 37 38 36 35 38 44 45 42 39 37 36 33 29 26 23 23 24 25 26 29 29 25 23 25 22 18 15 13 15 16 16 18 19 19 17 14
24 24 25 25 26 26 26 26 26 25 25 24 23 23 23 23 23 24 25 27 28 28 30 30 30 31 32 35 35 38 42 32 24 27 29 29 31 35 36 35 34 32 30 28 27 28 30 33 35 35 36 37 36 36 36 35 40 46 45 41 39 37 36 33 30 27 24 22 23 26 30 33 29 22 20 23 24 22 19 14 15 19 20 20 21 19 16 14
24 25 25 26 26 26 25 24 24 23 23 22 21 21 21 21 21 21 22 23 24 25 26 27 29 30 33 35 36 43 39 23 24 33 33 30 28 30 32 34 35 34 32 30 28 29 31 33 33 33 35 34 34 35 35 36 41 45 43 39 38 38 35 33 33 31 29 26 26 29 32 33 28 21 20 20 21 21 19 15 13 18 21 21 21 19 18 17
24 24 23 23 23 23 23 23 22 22 21 21 20 20 19 19 19 20 20 20 21 23 23 24 26 28 33 34 38 45 32 20 29 35 33 33 30 29 30 33 36 37 34 31 30 31 32 30 29 30 33 33 34 35 35 37 39 38 38 38 37 37 36 34 33 30 29 28 29 32 33 32 28 24 24 21 20 19 16 14 13 16 19 19 19 19 21 20
22 22 22 22 22 22 23 23 23 22 22 21 20 19 18 18 18 19 19 20 20 21 22 23 25 28 31 33 41 42 24 20 31 32 33 35 34 32 30 31 35 37 37 34 33 32 30 28 28 32 35 35 35 35 36 37 35 33 31 33 35 34 34 35 33 29 26 27 27 28 29 30 30 29 29 23 21 21 16 13 13 15 17 17 18 19 21 21
21 22 23 23 24 25 25 25 25 24 23 23 22 20 19 18 18 18 19 19 20 20 21 22 24 27 30 35 42 32 19 24 28 30 34 35 36 35 32 31 32 35 38 36 34 32 30 28 29 35 37 35 35 33 34 35 33 31 30 30 31 31 33 34 34 30 27 29 27 23 27 30 31 32 30 26 24 25 21 17 15 16 19 21 22 22 22 23
21 23 24 25 26 27 28 28 27 27 26 25 24 23 21 20 19 19 19 19 19 19 20 21 24 26 31 38 35 24 22 28 27 31 35 33 35 36 35 34 31 32 35 35 34 33 33 32 32 37 37 34 37 33 29 33 33 31 32 32 31 32 36 33 32 31 29 31 29 26 30 32 32 31 29 27 27 27 27 24 21 23 28 29 28 24 21 22
22 24 26 27 28 29 30 30 30 29 28 28 27 25 24 22 21 21 20 20 19 20 20 20 22 24 32 36 26 19 26 30 30 32 31 30 32 34 36 36 33 31 31 32 34 35 36 37 36 38 39 36 38 34 26 30 35 32 31 34 34 35 37 34 30 32 33 32 30 30 34 33 29 28 29 29 27 27 27 25 27 33 37 36 31 25 20 19
24 26 27 29 30 30 31 31 32 31 30 29 28 27 25 24 24 23 23 22 21 22 21 21 23 26 33 31 20 21 28 28 27 25 24 28 32 33 35 35 35 33 31 31 33 36 37 39 40 40 42 38 36 36 30 28 34 34 31 33 36 36 34 32 31 32 35 31 29 33 37 34 29 25 27 28 27 27 26 24 30 35 37 37 32 26 21 18
26 27 28 30 30 31 32 32 32 32 31 31 29 27 25 25 25 24 24 23 22 24 23 22 23 27 32 25 14 17 22 22 22 20 24 30 31 32 33 34 34 33 33 31 32 36 38 39 42 41 42 41 37 37 33 29 33 36 32 30 32 32 31 31 30 31 33 29 30 35 37 35 30 24 21 23 25 26 23 22 28 32 32 34 33 29 25 21
27 28 29 30 30 31 32 32 32 31 31 31 29 27 24 24 25 25 23 23 24 24 25 24 23 28 29 19 13 13 12 19 24 23 25 29 30 31 33 33 33 32 32 32 32 36 38 39 41 41 42 43 41 36 32 32 36 36 32 28 28 27 27 29 29 28 28 28 31 35 37 37 31 24 21 23 24 24 23 22 27 32 32 32 32 31 28 24
28 29 30 30 31 31 32 31 31 30 30 30 29 27 24 23 24 23 22 23 25 25 25 22 22 27 21 12 12 15 15 21 26 26 27 31 32 32 32 31 30 32 32 32 34 36 38 39 39 41 43 45 44 40 36 35 36 36 31 27 27 25 25 29 30 26 25 28 31 33 37 38 33 27 24 25 25 24 26 26 26 29 30 30 31 30 26 24
31 31 32 32 32 32 32 31 31 30 30 29 27 25 23 22 22 22 22 24 25 24 23 21 22 26 21 14 11 13 21 23 24 27 28 31 33 33 33 31 30 34 36 34 35 37 38 38 39 42 46 49 48 45 41 35 33 34 31 26 26 25 24 27 29 28 26 27 31 33 34 35 34 32 28 27 27 24 25 29 28 27 28 29 27 26 25 25
33 33 34 33 33 33 32 31 31 30 29 27 25 23 22 20 19 20 22 24 25 25 24 23 25 28 27 21 11 14 22 23 25 27 29 31 34 34 34 33 32 35 38 38 37 37 37 38 43 47 48 49 48 44 39 35 33 30 28 25 23 25 25 25 28 29 27 26 29 31 30 30 34 35 33 31 30 27 26 28 28 27 29 29 27 24 25 27
34 34 34 34 34 33 32 30 28 27 26 25 23 22 21 19 17 18 22 24 23 23 25 23 25 29 28 20 13 19 21 24 27 27 29 31 31 34 37 37 37 38 40 39 36 37 38 42 46 46 45 46 47 44 38 36 35 29 26 24 22 24 26 25 27 28 28 28 29 27 27 28 30 32 34 33 31 30 30 29 27 27 26 27 29 27 27 30
34 34 33 33 32 31 30 26 24 24 23 22 21 20 18 16 16 17 20 25 24 20 23 24 24 28 27 18 13 21 24 26 28 28 29 29 28 31 36 39 42 40 37 36 38 40 41 46 46 42 42 43 44 44 39 36 36 31 26 25 23 23 24 25 27 27 25 29 31 28 27 28 27 30 32 32 32 30 29 28 25 25 24 24 28 30 30 32
33 33 32 31 30 28 27 23 21 22 21 20 19 17 16 14 15 15 17 27 28 18 19 23 25 27 25 17 14 24 29 27 28 30 31 29 27 25 29 38 43 40 36 38 44 45 42 44 45 40 39 40 41 42 40 36 36 35 30 28 27 22 21 26 28 27 24 26 29 29 29 29 27 32 35 34 35 34 29 27 25 22 21 21 24 30 32 34
31 30 29 28 26 25 25 22 20 21 20 19 18 17 17 16 16 16 17 26 28 18 16 19 20 21 19 12 13 26 31 28 29 31 31 29 26 22 23 31 38 40 40 41 45 45 40 39 41 40 38 39 40 40 40 39 38 37 34 32 30 22 20 24 26 26 27 28 30 28 26 29 32 34 38 40 39 35 30 29 29 25 21 19 21 27 31 33
28 26 24 24 23 24 24 22 19 19 18 18 17 15 16 16 14 16 19 24 27 20 14 12 10 10 8 8 17 27 29 30 34 33 30 29 24 22 21 23 33 42 42 40 41 43 38 35 38 41 41 40 40 40 41 41 39 38 37 34 31 24 21 23 25 23 23 26 32 31 19 20 34 37 38 43 41 35 31 28 29 26 23 21 21 24 29 31
24 22 21 22 24 26 26 22 19 17 15 14 14 12 13 14 12 15 19 21 23 16 10 6 4 4 1 4 13 21 25 32 38 35 31 32 26 23 21 21 31 39 40 38 35 36 37 35 37 40 42 41 39 40 40 40 39 39 38 35 31 27 24 25 24 19 15 15 22 29 22 15 27 38 39 43 41 36 32 27 25 25 23 22 22 22 28 29
20 20 21 22 24 27 26 21 16 13 12 10 10 10 10 10 11 14 15 12 12 9 8 8 4 3 3 4 8 18 20 21 35 39 36 35 29 27 24 23 28 34 37 34 30 34 37 35 34 36 41 42 42 42 40 39 39 39 37 34 31 30 29 28 25 20 17 15 14 22 31 25 25 35 39 41 40 33 30 28 25 25 21 19 21 23 27 26
18 18 20 21 23 25 24 19 13 11 11 8 8 7 7 8 8 10 8 3 5 9 11 11 3 4 6 8 8 17 16 9 27 41 37 34 30 30 28 25 26 31 36 34 30 32 34 35 34 32 37 43 46 44 39 37 36 37 37 33 31 31 29 28 25 24 23 20 19 22 28 24 18 32 40 40 40 33 30 30 25 22 21 20 23 26 26 24
17 17 18 20 20 21 22 18 12 12 12 10 9 6 6 7 5 5 3 2 6 12 12 11 6 7 9 10 6 11 20 12 18 32 34 33 32 32 29 25 23 26 33 34 26 24 30 37 33 29 33 40 44 43 39 36 33 35 37 34 32 30 27 24 20 23 23 16 20 27 25 18 9 25 39 36 37 36 30 27 23 20 23 24 25 24 25 25
16 16 16 18 18 18 19 17 13 11 12 11 10 8 7 6 4 2 1 3 11 13 11 13 14 14 9 11 6 8 21 15 15 28 33 31 32 31 28 26 23 24 30 31 24 21 28 32 29 27 29 32 36 38 39 37 31 31 35 36 34 30 27 23 19 22 17 11 21 29 26 23 11 19 39 37 32 33 30 26 24 24 25 27 27 25 26 28
15 16 16 16 16 15 15 14 13 11 11 10 9 8 6 6 4 1 1 7 14 12 11 17 22 17 7 10 10 9 20 19 19 29 30 28 30 29 27 28 27 25 27 31 28 22 23 28 32 31 26 24 28 35 38 37 32 28 29 34 32 25 22 20 20 21 10 7 20 26 24 28 19 17 32 35 30 28 26 23 22 24 26 27 29 29 29 30
16 16 16 16 15 15 14 12 12 11 11 10 8 7 7 6 3 5 7 12 11 11 16 24 28 18 4 9 12 12 19 20 20 25 26 28 31 31 32 32 32 27 24 31 33 27 25 30 33 31 27 26 29 33 36 37 37 32 29 33 24 10 9 11 10 11 7 7 18 20 17 23 27 28 27 27 28 25 21 21 21 23 26 27 29 31 31 31
16 16 17 17 15 15 15 13 12 11 11 12 10 11 9 5 3 7 13 14 12 17 24 28 27 13 5 12 13 13 17 18 18 20 21 24 29 33 34 31 31 25 19 27 33 26 24 26 30 32 29 31 34 35 37 39 42 40 35 34 24 6 4 7 3 3 5 9 18 20 14 12 23 33 30 21 19 18 16 20 25 27 29 29 30 31 31 31
17 16 17 17 17 16 16 15 14 13 14 14 14 14 9 5 6 12 17 18 18 23 27 29 22 4 9 14 12 11 15 15 16 17 15 18 27 33 34 30 30 26 16 22 30 26 21 19 29 37 33 32 37 37 37 40 43 44 38 32 28 16 6 4 4 4 5 6 14 18 11 6 14 26 31 23 15 14 16 20 26 28 30 32 31 31 31 30
17 16 16 17 17 17 16 16 17 17 17 16 16 14 8 7 10 15 18 19 21 23 26 27 16 5 5 9 10 11 13 12 14 16 13 17 28 35 38 34 32 28 19 20 27 28 22 19 27 36 33 31 35 34 35 36 36 41 39 31 32 30 15 5 5 8 8 5 8 11 8 10 16 21 27 26 19 16 17 21 25 27 30 32 30 30 30 29
15 17 17 16 16 16 16 16 18 19 19 18 17 15 12 12 14 17 18 19 21 23 26 23 15 8 6 7 10 12 13 11 13 15 13 17 27 35 38 34 31 31 24 21 25 24 18 19 25 32 32 29 30 33 35 35 31 34 39 35 31 29 20 10 5 8 8 4 4 7 7 11 15 15 20 25 24 22 20 21 25 27 29 30 29 29 28 26
14 16 16 15 16 16 17 18 19 20 20 19 17 17 17 19 21 21 19 18 19 21 22 18 13 10 7 6 9 12 11 9 11 13 15 17 25 34 37 32 31 34 26 20 21 18 13 17 23 29 32 28 26 30 33 34 31 31 37 37 27 22 21 15 4 3 5 3 3 5 6 10 11 9 16 22 21 23 22 21 23 27 28 28 28 28 26 25
15 16 16 16 17 17 19 20 22 23 22 20 20 20 21 23 24 23 20 17 17 17 16 14 11 10 6 4 9 10 9 9 10 12 17 19 21 31 37 33 32 36 27 17 17 17 13 14 19 26 31 28 25 30 33 33 33 30 31 34 27 18 19 18 6 1 4 3 3 2 3 8 10 9 13 17 16 19 23 22 22 24 26 27 28 28 26 26
16 17 17 18 19 20 21 22 24 25 23 22 22 22 23 27 27 26 23 17 15 14 13 12 11 9 5 4 9 8 5 7 11 12 17 20 16 22 34 35 32 35 29 20 19 18 12 10 13 25 32 28 29 36 37 35 35 30 26 31 32 20 15 18 13 7 5 4 3 2 1 4 11 10 9 11 14 18 22 24 23 24 25 26 27 27 25 23
17 17 17 17 19 20 21 23 24 24 24 24 25 26 28 31 31 27 21 16 13 12 10 10 11 8 4 6 7 6 4 6 12 12 14 21 15 14 29 36 34 34 30 25 21 14 10 7 10 25 33 30 33 39 40 37 36 33 27 28 31 24 14 12 14 12 8 6 3 2 1 3 9 11 10 10 12 15 19 22 24 26 26 25 25 24 22 20
17 17 15 16 19 19 20 22 21 22 25 27 29 30 31 32 28 22 15 9 9 8 6 7 8 6 7 8 6 3 4 7 13 12 12 19 16 13 28 38 36 32 27 26 24 16 10 8 8 23 32 31 33 38 39 34 32 35 30 22 24 26 19 7 5 10 9 6 6 6 2 3 7 10 12 12 12 13 17 24 27 28 26 25 24 22 20 19
18 16 14 15 18 18 19 20 19 22 26 28 28 30 30 29 23 18 14 9 9 7 5 7 7 6 8 8 5 3 2 8 15 12 10 16 13 13 31 41 35 28 21 22 23 16 11 7 9 22 33 29 26 31 36 32 28 33 32 21 18 23 24 13 3 7 8 4 7 9 4 4 8 13 15 15 14 15 21 27 29 27 26 26 25 22 21 19
20 15 13 15 16 16 16 18 20 21 23 25 27 28 28 27 24 19 15 12 9 6 6 8 7 6 7 6 4 6 3 6 15 14 11 13 10 13 33 40 34 27 20 15 15 14 12 11 8 19 28 26 20 23 33 31 27 32 33 25 18 16 22 19 8 9 12 6 6 7 3 6 10 13 16 18 18 21 26 28 28 27 27 26 25 24 23 22
22 16 14 16 16 14 13 16 20 22 23 25 26 28 28 27 26 21 17 14 10 6 6 8 8 7 6 5 4 5 5 0 10 13 11 11 9 12 28 32 30 29 21 12 10 11 13 13 10 16 15 16 16 15 24 30 31 34 33 27 19 12 17 21 15 11 10 7 9 8 5 10 13 13 15 19 23 27 29 29 27 27 27 27 26 25 23 22
24 19 17 16 14 12 12 16 20 21 23 25 26 28 30 30 27 22 17 14 11 8 7 7 8 5 5 4 5 4 5 6 1 6 9 10 10 9 18 22 29 32 22 12 9 8 11 13 13 14 10 9 9 7 16 28 31 32 31 28 21 14 15 20 21 16 6 3 9 10 9 13 16 17 16 17 24 30 30 29 28 26 25 24 24 23 22 21
25 23 22 17 10 11 13 15 16 17 20 24 27 28 29 29 28 25 19 15 11 9 8 8 8 6 4 4 5 1 2 4 5 3 7 8 8 6 12 17 30 34 19 10 8 4 9 13 11 12 17 17 11 6 13 24 27 27 29 26 19 16 18 20 21 20 11 4 5 10 14 17 17 19 19 18 25 32 32 31 30 27 24 21 21 22 20 19
24 24 25 21 13 13 13 10 10 12 16 21 25 26 26 25 26 26 22 18 14 10 8 10 11 8 5 5 3 2 3 3 4 5 7 7 6 5 12 15 30 34 18 10 10 4 6 12 10 10 17 20 15 11 13 18 23 27 26 20 12 12 20 23 21 20 16 8 3 7 15 20 18 18 21 23 29 33 33 31 30 27 24 21 21 22 21 21
22 22 23 22 18 18 18 13 9 10 14 18 20 20 22 22 22 24 24 21 20 15 11 13 13 8 7 6 2 4 5 5 4 5 6 5 1 9 14 16 26 31 20 12 12 8 9 13 12 13 15 15 13 12 13 15 22 27 24 19 13 10 16 23 21 17 16 13 10 7 14 21 20 18 21 26 30 32 29 27 29 28 25 22 23 23 23 23
21 21 21 20 19 19 20 18 14 13 16 18 17 17 19 19 18 18 19 19 20 16 13 15 13 7 6 5 2 4 6 5 3 3 5 5 7 14 17 17 19 24 22 16 13 11 12 14 15 17 17 14 11 10 10 12 19 23 24 23 21 15 12 15 17 16 13 11 12 11 14 17 19 20 22 25 28 29 27 25 30 32 28 25 26 25 24 25
23 24 23 20 18 18 18 19 19 17 17 17 18 18 17 17 15 15 17 18 19 16 12 13 12 7 4 3 2 3 5 4 3 3 8 8 10 15 17 17 17 20 22 18 13 12 11 12 14 19 19 14 11 8 7 10 14 18 21 23 24 19 12 10 13 15 14 9 10 15 18 17 19 20 21 24 24 24 23 23 28 33 33 29 26 26 25 26
22 22 24 22 20 19 18 18 19 19 19 20 21 20 17 15 14 15 14 15 18 17 12 11 11 7 4 3 1 2 3 3 4 4 7 7 9 13 16 19 21 21 20 17 12 10 10 8 11 17 15 9 7 5 3 9 12 14 19 24 24 19 13 9 11 14 16 12 11 18 22 20 19 19 19 22 23 23 23 23 26 32 33 29 26 26 26 26
20 20 22 22 20 19 18 19 20 20 21 20 20 19 17 13 11 13 13 12 13 14 13 11 11 8 6 4 2 3 5 6 5 3 4 5 8 11 17 23 23 22 19 15 11 10 10 9 10 12 8 3 2 3 3 7 9 10 17 24 24 20 14 11 11 13 16 16 13 15 18 19 19 18 18 19 20 22 22 21 21 25 29 29 27 26 26 26
Wind_Direction
292 290 288 287 285 283 281 279 278 276 275 274 273 272 272 271 270 268 267 265 264 263 262 260 258 257 257 256 255 255 253 251 249 250 252 249 245 246 246 246 248 247 245 242 239 239 239 238 236 234 231 231 233 232 229 230 228 224 224 228 235 238 240 244 247 249 253 258 260 262 263 257 253 249 260 271 270 268 262 255 245 232 225 232 247 255 262 271
294 293 291 289 287 285 284 282 280 278 277 275 274 273 272 271 270 270 268 267 265 264 263 261 260 259 259 258 257 255 254 252 250 249 251 248 244 244 244 244 244 245 244 241 238 236 235 233 230 228 226 226 229 226 223 225 222 222 225 228 236 241 244 248 249 250 252 254 256 257 256 245 238 247 264 269 270 267 255 244 236 232 231 242 259 264 268 277
299 297 295 292 289 288 285 283 282 280 278 277 275 273 272 271 270 269 269 268 266 265 263 262 260 259 259 260 259 258 255 253 252 249 246 244 244 243 241 240 239 241 241 238 235 232 229 226 223 222 220 221 222 219 218 220 218 222 225 228 239 245 246 247 247 247 249 250 250 246 241 232 228 248 269 270 264 252 242 237 234 234 240 254 263 266 275 278
303 301 300 298 296 294 290 288 284 282 280 277 276 275 273 272 270 269 268 267 267 266 264 263 261 259 259 259 260 260 258 255 253 248 243 242 241 239 238 236 235 236 237 235 233 229 224 219 219 219 218 217 215 213 215 216 215 218 223 232 242 245 242 245 245 245 245 243 241 234 226 221 222 247 264 262 246 234 236 238 236 238 249 261 267 274 282 276
303 302 302 301 300 299 297 295 291 288 284 281 278 276 275 274 272 270 269 268 267 266 265 263 261 259 258 258 259 259 258 257 253 247 242 241 238 236 235 233 233 233 232 231 230 226 221 216 215 217 217 215 209 209 213 212 213 217 226 235 240 239 242 245 243 242 239 236 234 226 215 214 224 237 240 250 244 227 230 238 237 241 249 258 268 279 283 280
306 305 304 302 302 301 300 299 297 295 292 289 285 280 277 275 274 273 271 270 268 267 266 264 262 260 258 257 256 256 254 251 249 246 242 240 237 232 229 228 227 228 228 227 226 224 220 214 213 214 216 215 211 210 211 209 211 219 227 232 233 235 241 244 241 239 237 234 232 223 213 218 237 243 238 250 255 233 228 235 235 236 244 253 265 271 274 280
313 311 309 308 307 305 304 302 300 298 296 294 290 287 283 278 275 273 273 272 270 269 267 265 264 260 258 256 254 253 250 244 243 246 242 237 235 231 225 223 221 222 224 224 224 223 220 214 213 213 215 215 213 213 211 207 210 220 226 226 229 233 236 239 238 238 234 228 224 222 220 225 241 255 252 251 249 239 236 240 239 239 245 252 263 272 271 276
315 313 312 312 311 310 309 307 304 302 299 296 293 290 287 283 279 275 274 273 272 271 268 266 263 260 258 256 253 250 248 244 241 241 237 231 232 231 226 222 219 218 220 220 219 221 219 215 212 210 213 215 214 215 211 207 211 219 224 222 224 230 233 234 233 234 229 219 217 222 225 225 236 255 260 250 241 234 232 236 238 240 248 254 262 273 274 275
316 315 315 315 314 314 313 312 310 308 305 301 297 292 288 286 284 282 279 276 276 273 272 269 264 260 257 255 254 251 247 241 235 233 229 226 227 230 227 221 218 215 215 216 213 215 217 215 212 210 213 216 215 215 210 208 214 219 223 222 221 226 230 231 231 232 229 220 218 227 228 224 231 245 248 240 229 226 227 229 235 240 250 262 267 273 277 276
319 319 319 319 320 319 319 318 316 314 311 307 303 298 293 289 287 286 283 281 279 275 275 272 266 262 257 255 254 252 246 233 234 232 227 223 222 225 223 218 217 212 209 210 210 212 214 213 211 210 214 214 213 214 208 209 216 219 222 225 223 224 225 227 230 231 233 228 221 229 234 229 230 238 241 235 218 214 217 218 226 241 250 262 269 273 275 273
325 325 325 324 323 321 319 318 316 314 312 309 306 302 298 294 290 288 286 284 281 278 276 273 270 264 261 257 253 253 249 235 236 234 230 224 219 220 219 217 216 213 207 204 206 208 210 208 206 206 209 211 211 211 209 209 215 217 220 228 228 227 225 223 224 225 235 238 228 232 240 237 234 236 240 238 222 212 213 217 223 242 251 252 258 262 262 261
328 327 326 325 322 320 317 315 313 310 307 306 304 302 300 296 292 289 287 284 282 281 277 274 272 267 265 259 254 257 252 237 236 234 231 225 220 218 218 218 215 215 211 204 204 204 203 201 202 206 206 208 208 208 212 210 212 215 216 226 229 230 230 224 219 219 228 236 232 236 247 241 234 235 239 241 235 224 225 236 237 250 258 250 247 247 250 255
328 326 324 322 320 317 315 312 309 306 304 301 299 298 296 294 291 288 285 284 282 281 279 277 274 273 270 260 257 262 251 237 233 232 229 225 222 219 218 218 213 214 214 207 203 200 199 195 199 206 204 206 205 203 209 207 209 214 215 224 227 229 233 226 218 219 224 230 229 235 247 243 232 235 242 244 242 233 231 240 244 251 257 254 249 247 250 256
326 323 320 318 316 314 312 309 306 304 302 299 297 295 293 292 289 287 283 281 281 280 279 280 279 279 274 268 267 265 250 237 230 232 232 227 225 220 218 219 214 212 213 209 203 200 198 193 196 203 203 205 202 200 204 203 207 214 216 223 226 231 234 224 216 220 224 226 226 233 244 244 237 238 244 246 246 240 239 243 246 249 253 254 254 251 251 254
322 320 318 316 314 313 311 308 306 303 301 298 296 294 292 290 287 285 282 281 280 278 278 280 283 283 279 282 282 261 249 240 234 235 233 228 225 220 217 217 215 212 212 209 203 201 199 195 197 200 201 202 201 201 203 200 204 210 216 222 224 232 237 226 218 220 224 226 224 230 242 243 239 240 241 245 249 249 250 250 246 245 247 249 251 250 251 255
322 320 319 316 315 313 310 309 306 303 301 297 295 295 294 290 286 283 281 280 277 276 277 279 283 283 283 293 292 261 252 241 231 223 218 221 222 218 214 215 213 211 212 212 205 201 199 198 199 199 198 199 200 202 205 209 207 205 214 223 222 228 236 231 223 220 222 226 225 228 237 241 237 237 235 235 242 246 248 246 241 239 240 245 248 250 254 259
323 321 318 316 314 312 310 308 305 304 301 298 296 295 295 291 286 283 282 280 275 273 276 278 282 282 285 295 280 254 246 229 217 206 205 213 219 216 211 210 209 207 210 212 207 201 198 199 201 200 198 198 199 200 207 217 214 206 212 223 222 224 230 230 225 220 219 224 227 227 234 239 236 234 231 230 235 240 242 240 237 235 235 241 245 247 252 257
323 320 317 316 314 313 312 309 305 303 301 299 297 296 296 291 286 284 282 277 273 272 275 278 279 279 284 299 277 247 225 219 212 200 195 204 213 214 209 205 202 203 206 208 205 200 197 199 201 201 201 199 199 201 207 215 212 206 209 219 223 222 226 227 223 218 215 220 225 227 232 235 234 232 232 234 236 242 244 239 238 239 237 239 243 246 251 251
322 321 320 318 316 314 313 312 308 303 300 300 300 299 297 292 289 285 279 274 273 273 276 277 274 274 276 286 289 244 218 213 207 195 189 197 208 211 206 200 198 201 203 203 201 198 196 198 200 202 203 201 199 202 208 210 207 207 209 216 222 222 224 224 223 216 211 220 226 227 232 234 232 230 231 235 239 240 239 236 238 243 242 240 241 245 248 245
325 325 323 320 317 314 312 312 310 303 300 302 303 302 297 293 288 280 276 275 276 276 275 275 275 276 277 276 258 224 217 207 196 185 181 191 203 209 205 198 198 202 203 202 199 196 195 200 203 204 204 201 200 202 208 209 205 209 215 218 221 225 226 221 221 219 213 221 229 229 235 237 234 234 235 240 242 239 233 232 235 240 243 242 239 238 241 239
330 329 326 323 320 317 315 314 311 304 302 306 308 305 301 298 291 285 284 278 273 276 276 274 276 276 282 283 235 214 221 205 189 175 173 184 194 206 205 198 200 203 203 201 198 195 198 206 207 205 204 202 201 202 208 208 205 209 216 217 222 229 229 219 216 219 218 226 230 228 235 239 235 237 239 241 244 239 233 232 234 239 246 246 240 233 232 233
335 333 331 329 327 325 322 318 312 307 305 306 306 305 304 302 299 299 296 285 274 276 281 281 281 279 282 280 222 209 221 207 184 169 169 175 183 198 203 200 202 203 200 198 198 197 203 211 208 205 205 202 201 204 208 209 207 211 212 214 225 228 226 220 213 213 219 229 232 230 237 241 237 238 240 241 243 241 238 238 238 242 248 251 242 229 226 232
339 338 336 334 334 329 325 321 314 307 305 304 303 302 299 294 295 297 298 293 285 283 291 290 286 282 280 270 215 208 221 207 182 173 172 175 179 190 200 202 202 201 198 197 198 198 205 212 207 203 204 203 203 205 208 210 210 213 212 217 225 219 218 221 213 209 214 225 232 236 242 245 241 241 240 240 243 244 244 245 245 245 246 253 246 231 229 235
342 342 341 340 338 329 325 325 317 309 306 304 300 298 294 292 296 300 302 300 296 298 301 294 288 286 285 275 216 213 222 209 183 174 175 177 176 184 201 204 201 200 198 198 200 200 205 210 205 201 203 203 204 205 208 211 212 214 213 218 223 213 211 220 215 213 218 222 228 237 247 247 243 242 239 238 240 241 242 243 244 243 240 247 246 236 235 237
349 350 350 347 342 334 333 333 322 313 310 308 305 301 298 300 305 311 313 306 304 307 306 298 299 297 277 234 211 210 221 213 183 168 175 177 170 185 202 202 202 202 198 197 200 202 206 208 204 202 202 203 204 205 208 209 212 215 212 214 218 213 208 214 216 219 228 232 231 232 241 248 242 241 238 236 237 238 239 240 238 238 237 236 234 233 233 231
355 359 358 352 345 341 341 341 328 318 317 315 314 309 304 308 313 319 319 309 304 312 327 335 338 341 331 236 223 208 221 217 185 167 177 178 166 181 199 201 203 204 198 194 199 206 206 205 206 204 202 203 204 207 207 207 213 217 211 207 210 213 212 213 221 231 242 247 238 233 232 238 240 237 235 234 235 237 236 232 227 230 236 232 226 227 224 220
358 1 358 353 350 345 347 350 341 330 329 326 319 309 301 305 311 322 324 312 305 316 347 352 324 322 3 319 250 205 215 216 187 176 177 175 167 173 191 204 205 203 195 190 200 209 203 200 206 207 205 205 205 207 205 203 213 217 207 203 209 214 215 219 232 245 249 254 262 248 232 225 231 232 230 229 231 234 230 224 221 222 225 220 213 211 211 213
355 358 355 354 352 348 352 357 353 347 345 339 331 318 304 305 307 322 332 321 310 319 345 2 351 300 292 284 264 212 206 197 187 185 175 170 171 173 186 201 203 199 191 188 201 208 199 197 204 205 206 209 209 207 202 200 213 216 204 204 213 217 223 232 244 253 256 258 272 264 232 217 225 225 223 225 226 228 224 219 219 214 204 198 197 196 202 211
351 352 352 353 351 350 356 360 356 354 348 340 341 335 318 316 308 317 321 229 304 316 332 352 348 324 291 261 275 208 201 188 178 182 174 171 175 177 184 191 196 198 191 190 202 208 202 200 202 205 208 212 212 209 202 200 210 213 206 207 215 220 231 243 251 255 260 256 259 262 236 212 218 215 213 216 219 223 222 214 210 204 197 197 199 199 205 213
346 344 346 348 349 350 356 1 359 352 343 340 344 342 329 323 315 318 173 267 308 313 312 326 331 334 309 247 250 188 194 187 153 169 179 181 179 181 184 180 183 194 193 194 201 210 210 202 199 208 215 214 213 210 204 200 204 210 210 212 220 230 239 246 251 254 262 246 246 261 244 220 219 208 209 212 214 218 219 211 202 200 200 204 207 208 211 214
339 336 338 341 345 347 351 1 3 354 352 353 353 349 340 332 320 222 190 305 313 314 310 326 334 338 325 243 238 191 187 188 165 168 183 188 184 185 184 179 180 187 195 201 199 200 207 203 199 206 215 214 211 210 204 199 198 204 210 213 223 239 242 246 250 243 248 242 243 260 250 227 221 208 208 212 214 213 214 215 212 209 210 210 209 210 212 215
336 333 334 337 341 342 343 353 357 356 358 357 353 351 345 340 306 234 280 307 311 315 316 328 336 339 319 222 222 196 189 196 186 175 180 188 189 186 182 181 183 183 195 204 199 196 202 205 202 203 210 212 208 205 203 201 199 202 208 209 214 233 222 227 244 227 221 241 241 252 249 226 220 219 214 209 212 216 220 222 222 223 224 220 213 210 211 213
338 334 333 337 342 341 341 343 346 348 349 348 345 342 339 334 282 270 292 300 301 312 320 331 340 341 210 203 209 202 195 197 191 179 178 189 194 189 184 186 190 188 192 197 198 201 205 208 209 205 208 212 209 201 199 201 202 204 208 205 201 183 173 208 230 210 216 230 235 240 242 223 215 219 219 212 217 234 237 223 220 227 234 231 219 210 209 211
339 338 335 339 344 345 345 345 345 346 344 344 339 334 326 291 292 304 304 304 309 317 327 339 348 4 185 195 198 198 195 192 188 181 181 197 202 195 190 191 193 193 189 188 195 200 201 207 209 206 205 208 209 206 199 198 201 205 209 210 207 200 184 193 193 190 200 216 230 230 225 206 202 210 216 221 233 240 231 218 217 227 234 229 216 207 208 210
337 340 340 342 344 344 347 348 348 347 343 341 337 329 310 276 294 312 316 320 323 326 336 350 7 66 151 180 184 188 190 186 181 182 192 208 206 197 192 192 190 189 184 182 194 199 204 212 203 200 205 206 207 209 202 198 201 205 207 213 216 209 208 223 198 190 187 192 228 216 189 187 198 208 216 220 225 224 220 216 215 224 229 222 212 207 209 211
332 335 337 340 343 344 348 349 347 344 341 342 340 330 314 305 311 317 324 329 327 328 340 357 22 56 85 137 172 180 179 175 173 186 207 215 209 199 195 196 189 186 184 182 191 194 203 215 200 195 204 207 207 206 201 199 202 203 205 214 217 209 213 233 207 185 175 164 218 199 165 174 184 196 204 204 210 217 219 216 215 221 222 216 211 210 211 212
329 328 328 332 338 342 346 349 347 343 343 343 338 330 325 324 326 325 326 327 323 327 336 350 15 31 55 120 166 171 175 191 190 199 211 210 208 202 199 200 193 186 181 175 185 190 197 210 204 198 201 204 205 202 201 204 204 202 207 214 213 205 218 233 225 166 155 144 231 205 178 177 171 180 194 194 205 214 210 204 210 219 216 209 208 209 209 212
331 328 326 326 329 336 343 347 347 345 343 338 330 327 328 330 332 331 331 329 322 326 335 342 358 6 24 123 173 174 175 195 194 199 201 199 206 205 201 200 192 185 178 168 177 186 196 207 204 201 199 197 196 196 200 206 208 211 212 211 206 202 218 226 228 198 159 160 252 232 197 193 182 182 189 190 198 202 197 193 197 204 202 200 201 202 205 208
337 332 329 327 327 335 342 345 346 346 339 330 325 322 324 327 330 330 332 334 326 322 333 342 344 351 20 149 185 190 177 188 193 197 194 192 204 211 204 201 193 184 179 182 186 183 193 209 200 196 196 194 192 194 199 201 205 212 215 211 210 209 213 216 221 227 183 168 222 229 250 204 194 201 208 206 205 200 200 198 189 181 183 190 194 197 200 202
342 336 332 330 329 335 341 342 345 344 333 327 327 324 324 326 328 332 334 331 325 321 329 339 342 359 62 142 179 197 206 202 197 199 196 193 198 210 203 199 194 186 182 190 200 199 209 231 205 192 194 197 196 196 200 199 198 202 204 205 207 207 207 211 222 223 192 161 162 172 270 213 190 208 228 228 216 203 200 196 182 175 178 185 188 190 192 194
342 336 335 333 330 334 337 338 344 342 331 331 331 328 330 331 334 351 4 353 345 344 343 356 2 32 93 130 147 178 219 209 196 196 199 195 196 203 199 195 192 191 193 201 210 213 215 238 224 192 191 197 199 197 198 199 200 202 204 203 200 203 206 197 216 215 188 168 168 162 213 218 184 205 222 219 208 196 190 185 177 175 179 181 182 186 189 191
349 344 342 334 327 328 329 333 343 341 332 331 333 333 337 342 352 20 41 41 31 22 13 25 40 77 107 126 113 72 146 197 198 199 197 199 209 200 189 191 193 195 199 208 214 210 205 250 246 197 192 196 197 197 197 199 203 205 209 210 196 201 208 202 209 204 179 172 180 169 185 210 189 201 215 214 199 184 180 178 175 175 176 177 179 182 186 189
1 358 349 330 320 324 331 336 340 338 334 336 339 345 350 357 9 28 39 38 39 34 24 42 68 97 108 113 71 37 32 199 201 204 200 205 227 196 184 192 201 198 191 203 217 211 214 252 235 180 185 190 186 194 200 202 205 204 207 210 199 202 210 209 221 197 181 186 177 159 191 219 201 201 212 214 196 177 174 175 174 173 172 174 179 181 184 186
6 11 2 338 328 339 348 342 335 337 344 348 351 1 8 12 17 26 32 36 42 39 31 59 84 93 101 98 52 33 22 352 201 210 216 222 245 205 188 196 205 199 192 190 193 195 215 236 194 152 161 179 174 182 196 201 207 206 205 204 201 207 209 210 217 200 187 206 191 168 197 219 213 210 211 209 191 176 176 178 175 173 173 176 179 182 186 186
7 14 13 354 342 352 351 336 332 336 345 353 1 10 13 14 17 24 31 37 46 44 38 68 90 85 92 74 30 41 45 23 302 223 231 247 271 227 192 197 204 200 190 174 172 195 218 218 187 160 156 169 169 174 192 197 204 207 205 201 202 214 212 211 213 203 181 195 197 196 205 205 210 214 213 208 192 180 178 178 173 175 182 183 183 187 190 189
6 9 11 9 5 0 346 330 329 338 347 356 3 8 7 6 10 18 26 32 40 46 44 57 69 66 68 39 11 50 104 11 353 283 246 268 296 233 183 193 203 197 184 177 196 231 226 215 206 190 184 183 184 190 200 202 203 204 203 200 203 218 221 218 214 204 191 160 199 227 219 198 196 205 205 200 192 184 179 177 173 176 185 188 192 199 199 196
11 10 9 12 14 6 358 340 330 350 3 1 0 2 360 358 2 10 18 30 39 43 45 44 47 53 41 6 341 219 219 268 308 309 292 302 315 191 167 185 200 196 189 201 209 223 232 220 228 221 201 197 202 208 214 213 204 197 195 194 199 216 223 225 220 208 202 201 229 244 214 195 185 191 196 193 191 187 181 179 177 176 182 190 200 207 204 202
14 15 13 13 10 6 7 3 352 359 2 356 354 354 351 353 3 7 10 26 38 39 39 36 36 44 30 7 315 253 274 282 289 314 317 319 38 149 155 174 195 195 193 198 201 216 234 219 218 218 204 196 200 212 222 214 200 195 194 196 205 218 222 224 227 223 216 221 235 222 198 190 179 177 187 187 186 186 186 187 187 183 184 195 207 211 208 206
12 15 18 18 14 9 7 5 4 356 347 346 348 345 344 351 7 15 17 27 36 37 32 27 28 31 13 1 294 277 311 318 303 332 7 36 113 138 148 158 178 189 191 196 213 229 224 211 210 207 196 182 173 183 204 204 200 203 204 209 220 230 219 214 229 236 223 226 241 225 201 193 182 178 185 183 181 187 192 194 195 192 192 201 211 214 211 208
11 12 14 16 16 14 10 8 7 0 354 353 350 346 351 359 11 30 36 27 23 27 27 19 21 27 4 344 312 305 324 327 295 347 28 58 119 135 138 143 157 177 188 202 227 231 211 203 205 200 195 190 183 177 183 193 201 210 213 216 224 231 224 210 224 228 217 220 231 212 199 193 185 183 185 183 182 187 192 197 200 201 201 205 212 215 214 212
12 8 8 10 14 15 15 14 8 4 4 360 349 347 359 13 19 29 34 24 13 12 10 5 12 28 35 16 351 298 293 276 267 326 22 63 113 124 134 147 157 172 189 207 222 215 198 187 186 192 195 194 198 208 202 197 207 220 222 222 224 226 223 218 223 224 222 223 205 193 193 188 180 180 185 186 188 190 196 208 212 206 205 209 216 219 219 218
11 8 7 11 15 15 17 18 13 10 8 357 346 346 355 12 27 22 22 30 23 5 354 355 4 18 42 63 108 207 228 230 237 298 13 72 102 120 145 157 163 176 192 205 210 206 193 170 161 177 181 131 161 226 238 206 213 230 225 222 225 225 221 224 234 233 229 226 207 195 198 189 173 172 178 183 192 199 206 217 220 211 209 214 220 223 223 220
Height
3086 3085 3084 3083 3082 3081 3080 3079 3079 3078 3077 3076 3076 3075 3075 3074 3074 3074 3073 3074 3074 3075 3076 3077 3078 3078 3078 3078 3077 3078 3079 3082 3084 3084 3088 3094 3092 3089 3094 3096 3098 3099 3099 3101 3103 3105 3108 3111 3114 3117 3118 3119 3120 3124 3127 3128 3131 3132 3131 3129 3124 3124 3127 3130 3134 3137 3140 3143 3146 3148 3150 3151 3151 3152 3152 3153 3153 3154 3154 3152 3151 3150 3150 3150 3150 3150 3150 3152
3082 3081 3080 3079 3078 3077 3076 3075 3074 3074 3073 3072 3072 3071 3071 3070 3070 3069 3069 3069 3069 3070 3071 3072 3073 3073 3073 3073 3072 3072 3075 3077 3079 3083 3087 3087 3085 3087 3091 3092 3094 3094 3095 3098 3100 3102 3104 3107 3111 3112 3113 3114 3116 3121 3123 3124 3126 3125 3125 3123 3118 3120 3124 3129 3133 3136 3139 3141 3143 3145 3147 3148 3149 3150 3150 3151 3151 3151 3150 3150 3149 3148 3149 3149 3148 3147 3148 3149
3079 3078 3076 3075 3074 3073 3072 3071 3071 3070 3069 3068 3067 3067 3066 3066 3065 3065 3065 3064 3064 3065 3066 3067 3068 3069 3069 3069 3068 3068 3070 3073 3075 3080 3082 3080 3081 3085 3086 3088 3090 3090 3092 3095 3096 3098 3100 3103 3106 3106 3107 3109 3112 3117 3118 3119 3121 3121 3121 3117 3113 3119 3124 3127 3131 3134 3137 3138 3141 3143 3144 3145 3146 3148 3148 3148 3148 3148 3147 3147 3148 3147 3147 3147 3146 3145 3145 3147
3075 3074 3072 3071 3070 3069 3068 3067 3067 3066 3065 3064 3063 3063 3062 3062 3061 3061 3060 3060 3060 3060 3061 3062 3063 3064 3064 3064 3063 3063 3065 3069 3071 3074 3075 3075 3077 3080 3082 3084 3085 3086 3089 3091 3092 3094 3096 3099 3101 3101 3103 3104 3108 3112 3113 3114 3116 3117 3115 3110 3112 3120 3122 3125 3129 3131 3134 3136 3138 3140 3141 3142 3143 3147 3147 3146 3146 3146 3145 3146 3146 3146 3146 3145 3143 3143 3143 3145
3072 3070 3069 3068 3067 3066 3064 3064 3063 3062 3061 3060 3060 3059 3058 3057 3056 3056 3056 3055 3055 3056 3056 3057 3059 3059 3059 3060 3059 3058 3062 3065 3066 3068 3069 3070 3073 3075 3078 3080 3081 3083 3085 3086 3088 3091 3093 3095 3096 3098 3098 3100 3104 3106 3107 3111 3113 3112 3109 3109 3114 3118 3118 3123 3127 3129 3131 3133 3135 3137 3138 3139 3141 3143 3145 3145 3144 3144 3144 3144 3144 3144 3145 3143 3141 3141 3141 3143
3069 3068 3066 3065 3064 3062 3061 3060 3059 3058 3057 3056 3056 3055 3054 3053 3053 3052 3051 3051 3051 3051 3052 3053 3054 3055 3054 3055 3055 3054 3057 3060 3061 3063 3065 3066 3068 3070 3072 3074 3076 3078 3080 3082 3085 3088 3090 3092 3092 3093 3095 3098 3100 3101 3104 3109 3110 3107 3105 3108 3113 3115 3117 3120 3124 3126 3129 3130 3131 3134 3136 3137 3138 3139 3141 3142 3143 3143 3142 3142 3142 3141 3142 3141 3140 3141 3141 3142
3066 3065 3063 3062 3061 3060 3059 3057 3056 3055 3054 3053 3052 3051 3050 3049 3049 3048 3047 3047 3046 3047 3047 3048 3050 3050 3050 3050 3050 3049 3049 3055 3060 3061 3061 3062 3062 3064 3066 3068 3071 3074 3076 3079 3082 3084 3087 3088 3089 3090 3093 3095 3097 3099 3102 3107 3107 3103 3102 3107 3110 3113 3115 3118 3121 3123 3125 3127 3128 3132 3133 3133 3134 3136 3138 3139 3140 3141 3140 3140 3140 3139 3139 3140 3140 3140 3141 3142
3064 3062 3061 3060 3058 3057 3056 3054 3053 3052 3051 3050 3049 3048 3047 3046 3045 3044 3044 3043 3043 3043 3043 3044 3044 3045 3045 3044 3045 3042 3042 3053 3059 3057 3056 3057 3058 3060 3063 3065 3068 3071 3074 3076 3079 3081 3083 3084 3085 3088 3090 3092 3095 3098 3101 3104 3103 3099 3100 3106 3109 3111 3113 3116 3119 3120 3122 3124 3126 3128 3129 3129 3131 3134 3135 3136 3138 3139 3138 3138 3138 3137 3137 3138 3139 3139 3140 3142
3062 3061 3060 3058 3056 3054 3053 3051 3050 3049 3048 3047 3046 3045 3044 3043 3042 3042 3041 3040 3040 3039 3039 3040 3039 3040 3039 3039 3039 3034 3039 3055 3055 3049 3050 3054 3056 3059 3061 3063 3064 3067 3070 3073 3076 3077 3079 3081 3084 3087 3088 3091 3094 3096 3099 3100 3097 3097 3100 3105 3107 3108 3110 3114 3116 3117 3119 3121 3123 3125 3125 3125 3129 3131 3131 3134 3136 3136 3136 3136 3136 3136 3136 3136 3137 3138 3139 3140
3061 3059 3058 3056 3055 3053 3051 3050 3048 3047 3045 3044 3043 3042 3041 3040 3039 3039 3038 3037 3037 3036 3036 3035 3035 3035 3033 3035 3032 3027 3040 3053 3047 3044 3048 3051 3054 3055 3057 3059 3059 3061 3064 3069 3072 3073 3076 3080 3084 3087 3088 3090 3091 3093 3095 3095 3094 3098 3101 3103 3104 3105 3108 3111 3112 3114 3117 3119 3121 3122 3122 3123 3126 3128 3128 3131 3135 3134 3133 3133 3134 3134 3134 3135 3136 3137 3138 3139
3059 3058 3056 3055 3053 3052 3050 3048 3046 3045 3043 3042 3041 3040 3039 3038 3037 3036 3035 3034 3033 3033 3032 3032 3031 3030 3029 3030 3025 3025 3042 3047 3041 3042 3044 3047 3050 3052 3054 3055 3057 3058 3060 3063 3067 3070 3074 3079 3083 3084 3084 3086 3088 3090 3092 3092 3094 3097 3100 3101 3101 3103 3105 3107 3109 3111 3114 3116 3117 3120 3121 3122 3123 3123 3124 3129 3133 3133 3132 3132 3132 3132 3133 3134 3134 3135 3136 3137
3058 3056 3055 3053 3051 3050 3048 3046 3045 3043 3041 3040 3038 3038 3036 3035 3034 3033 3032 3031 3030 3030 3029 3029 3028 3026 3026 3023 3020 3029 3041 3039 3037 3038 3038 3042 3046 3049 3052 3052 3055 3057 3058 3060 3063 3068 3072 3076 3079 3079 3080 3082 3086 3088 3089 3091 3093 3094 3097 3098 3099 3101 3101 3102 3105 3108 3112 3112 3115 3119 3118 3116 3117 3118 3122 3127 3130 3131 3132 3130 3130 3130 3130 3131 3131 3132 3134 3135
3057 3055 3053 3051 3050 3048 3046 3044 3042 3040 3039 3037 3036 3035 3034 3033 3032 3030 3029 3028 3027 3026 3026 3026 3024 3024 3021 3016 3020 3031 3034 3031 3033 3032 3032 3038 3042 3046 3049 3049 3052 3055 3056 3059 3061 3065 3068 3071 3074 3075 3078 3080 3082 3085 3086 3089 3091 3091 3094 3095 3096 3097 3095 3098 3103 3106 3108 3108 3112 3117 3113 3110 3113 3116 3120 3123 3126 3129 3130 3129 3130 3128 3125 3125 3127 3130 3133 3135
3055 3053 3051 3049 3047 3045 3043 3041 3039 3037 3036 3034 3033 3032 3031 3030 3028 3027 3026 3025 3024 3023 3023 3022 3021 3021 3015 3012 3022 3028 3024 3025 3027 3027 3031 3037 3039 3042 3045 3047 3051 3053 3055 3058 3060 3062 3064 3066 3068 3070 3075 3076 3078 3082 3084 3086 3087 3089 3091 3091 3092 3091 3090 3095 3100 3102 3104 3105 3110 3113 3108 3107 3112 3115 3118 3120 3123 3126 3127 3128 3129 3125 3121 3121 3125 3129 3131 3133
3054 3052 3049 3047 3045 3042 3040 3038 3036 3034 3032 3030 3029 3028 3027 3026 3025 3024 3023 3022 3021 3020 3020 3020 3018 3016 3011 3012 3020 3021 3019 3022 3025 3027 3031 3033 3034 3037 3041 3045 3048 3051 3053 3055 3057 3059 3061 3063 3063 3065 3069 3074 3078 3080 3080 3082 3083 3085 3086 3085 3087 3087 3088 3093 3096 3098 3101 3103 3108 3108 3104 3105 3110 3113 3116 3118 3120 3122 3124 3126 3125 3122 3120 3121 3124 3126 3129 3132
3052 3049 3047 3044 3042 3039 3037 3035 3032 3030 3028 3026 3025 3024 3024 3022 3021 3020 3019 3019 3018 3017 3017 3017 3015 3013 3009 3012 3016 3015 3015 3018 3021 3023 3024 3026 3029 3034 3039 3041 3044 3048 3050 3053 3055 3056 3059 3060 3060 3062 3066 3071 3074 3075 3078 3079 3078 3080 3080 3081 3084 3086 3088 3091 3093 3096 3099 3101 3103 3103 3100 3103 3107 3111 3114 3116 3118 3119 3121 3122 3120 3119 3119 3120 3122 3124 3128 3131
3049 3047 3044 3042 3039 3036 3034 3032 3029 3027 3024 3022 3021 3021 3020 3018 3017 3016 3015 3015 3014 3013 3013 3013 3013 3009 3007 3011 3012 3012 3012 3012 3014 3015 3018 3022 3026 3030 3035 3037 3041 3045 3048 3052 3053 3053 3055 3056 3057 3060 3063 3066 3069 3072 3074 3071 3070 3074 3077 3078 3081 3084 3087 3089 3091 3093 3097 3098 3098 3099 3099 3100 3105 3109 3112 3114 3115 3116 3118 3118 3117 3117 3118 3120 3121 3123 3127 3130
3047 3044 3042 3039 3036 3034 3031 3028 3025 3023 3021 3019 3017 3016 3016 3014 3013 3012 3011 3010 3009 3009 3009 3010 3010 3006 3006 3008 3008 3008 3009 3008 3008 3010 3013 3017 3021 3026 3030 3034 3039 3042 3045 3048 3049 3050 3052 3052 3055 3058 3059 3061 3063 3065 3064 3062 3066 3071 3074 3077 3079 3082 3084 3086 3089 3091 3094 3095 3095 3096 3096 3098 3103 3107 3110 3112 3113 3114 3115 3115 3115 3115 3117 3118 3120 3122 3126 3128
3044 3041 3038 3036 3033 3030 3028 3025 3022 3019 3017 3015 3014 3013 3012 3011 3009 3008 3007 3006 3005 3006 3006 3006 3006 3004 3004 3006 3007 3006 3005 3005 3005 3007 3010 3014 3018 3021 3026 3032 3036 3038 3040 3042 3044 3047 3048 3050 3051 3051 3051 3054 3057 3059 3059 3063 3069 3072 3074 3076 3078 3080 3082 3084 3087 3089 3092 3093 3092 3093 3094 3097 3101 3104 3107 3109 3111 3112 3112 3111 3113 3114 3115 3116 3118 3121 3123 3125
3041 3038 3035 3032 3029 3027 3024 3022 3019 3016 3013 3012 3011 3010 3009 3007 3006 3004 3003 3003 3002 3002 3002 3002 3001 2999 3000 3004 3006 3005 3003 3002 3003 3004 3006 3010 3014 3018 3022 3027 3031 3032 3034 3036 3040 3044 3046 3046 3043 3042 3045 3051 3056 3059 3062 3066 3070 3072 3074 3075 3077 3079 3080 3083 3086 3088 3090 3090 3090 3092 3094 3097 3099 3102 3105 3106 3108 3109 3108 3109 3111 3112 3113 3114 3117 3119 3120 3122
3038 3035 3032 3029 3026 3023 3021 3019 3016 3013 3011 3009 3008 3007 3005 3004 3003 3001 3000 2999 3000 3000 2998 2999 2998 2995 2996 3001 3003 3003 3001 3000 3001 3002 3004 3006 3010 3014 3017 3022 3024 3025 3028 3034 3039 3043 3043 3039 3037 3041 3047 3053 3057 3061 3063 3066 3068 3070 3072 3074 3076 3077 3079 3082 3084 3086 3089 3088 3088 3092 3094 3096 3098 3100 3102 3103 3104 3105 3105 3106 3108 3109 3110 3112 3114 3117 3118 3119
3035 3032 3029 3026 3024 3020 3017 3016 3013 3011 3009 3007 3006 3005 3003 3002 3001 3000 2998 2994 2995 2997 2995 2995 2995 2991 2993 2997 2999 3000 2998 2998 3000 3001 3002 3004 3006 3009 3013 3017 3019 3021 3026 3032 3035 3037 3036 3033 3036 3044 3049 3053 3057 3060 3062 3065 3067 3068 3070 3072 3073 3075 3078 3081 3083 3085 3087 3087 3087 3090 3093 3094 3096 3098 3099 3099 3100 3101 3102 3104 3107 3108 3108 3109 3111 3114 3116 3117
3033 3030 3027 3024 3021 3018 3015 3013 3011 3008 3007 3005 3004 3003 3002 3001 3000 2999 2997 2992 2990 2994 2993 2991 2990 2987 2989 2992 2995 2995 2993 2995 2999 2999 3000 3001 3003 3007 3011 3013 3016 3020 3025 3026 3028 3030 3029 3030 3038 3045 3048 3052 3055 3058 3061 3063 3064 3065 3067 3069 3070 3073 3077 3078 3081 3083 3085 3086 3087 3090 3092 3093 3095 3095 3095 3096 3096 3098 3100 3103 3105 3106 3106 3107 3109 3112 3114 3115
3032 3029 3025 3022 3019 3016 3013 3011 3009 3006 3005 3003 3002 3001 3000 2999 2998 2997 2996 2991 2987 2990 2990 2987 2986 2985 2986 2988 2990 2990 2989 2992 2996 2997 2998 2998 3001 3006 3009 3011 3015 3018 3020 3022 3025 3027 3028 3031 3039 3044 3047 3050 3053 3055 3058 3060 3061 3062 3064 3066 3069 3073 3075 3077 3081 3084 3085 3086 3087 3090 3090 3090 3091 3091 3091 3092 3092 3095 3098 3100 3101 3103 3104 3105 3107 3109 3112 3114
3030 3027 3024 3021 3018 3014 3012 3010 3007 3005 3003 3002 3001 3000 2999 2998 2997 2996 2994 2991 2986 2986 2986 2984 2984 2983 2982 2983 2983 2985 2986 2988 2991 2994 2996 2997 3000 3005 3008 3011 3013 3014 3016 3021 3025 3026 3029 3033 3039 3042 3044 3047 3050 3051 3053 3056 3059 3060 3062 3065 3069 3073 3075 3077 3080 3083 3084 3083 3085 3088 3088 3086 3086 3087 3087 3088 3089 3093 3095 3097 3098 3100 3102 3103 3104 3107 3109 3112
3029 3026 3023 3020 3017 3013 3011 3009 3006 3003 3002 3000 2999 2998 2998 2997 2997 2996 2994 2990 2986 2983 2983 2982 2982 2981 2980 2980 2981 2983 2984 2984 2988 2992 2993 2995 2997 3002 3007 3009 3010 3012 3016 3021 3025 3026 3028 3033 3037 3039 3042 3045 3047 3048 3051 3055 3058 3058 3060 3065 3069 3072 3074 3075 3078 3081 3081 3081 3083 3085 3086 3084 3083 3083 3083 3085 3087 3091 3093 3094 3096 3098 3099 3100 3102 3104 3107 3111
3028 3025 3023 3020 3017 3013 3010 3007 3004 3002 3000 2999 2998 2997 2997 2996 2996 2995 2993 2991 2986 2983 2982 2981 2981 2980 2979 2979 2980 2982 2982 2982 2987 2989 2989 2993 2995 2999 3004 3006 3008 3011 3016 3022 3023 3021 3025 3031 3034 3036 3040 3042 3042 3043 3048 3053 3055 3055 3060 3066 3069 3070 3072 3073 3076 3079 3079 3080 3080 3080 3081 3081 3079 3078 3080 3082 3085 3087 3090 3091 3093 3095 3096 3098 3100 3103 3106 3109
3027 3025 3022 3020 3016 3013 3009 3007 3004 3002 3001 2999 2998 2997 2996 2995 2995 2994 2994 2993 2986 2982 2982 2980 2979 2979 2979 2978 2978 2979 2981 2983 2986 2988 2990 2993 2994 2997 3001 3004 3007 3010 3015 3018 3018 3018 3024 3028 3030 3033 3037 3037 3037 3041 3047 3053 3054 3056 3062 3066 3068 3070 3071 3072 3076 3077 3078 3080 3077 3075 3078 3077 3074 3075 3077 3079 3081 3084 3086 3088 3091 3093 3094 3097 3099 3102 3105 3107
3027 3024 3022 3019 3016 3013 3010 3007 3004 3003 3001 3000 2998 2997 2996 2995 2994 2993 2994 2992 2985 2980 2981 2980 2979 2978 2978 2978 2977 2977 2980 2983 2985 2989 2992 2993 2993 2996 2999 3003 3008 3011 3014 3016 3018 3021 3024 3026 3029 3032 3033 3033 3036 3042 3048 3051 3054 3058 3063 3065 3067 3069 3070 3073 3075 3075 3077 3077 3073 3072 3075 3074 3072 3071 3072 3075 3077 3080 3083 3086 3088 3090 3092 3095 3097 3100 3102 3103
3026 3023 3021 3019 3016 3014 3010 3007 3005 3003 3001 3000 2999 2997 2996 2995 2994 2994 2994 2989 2983 2980 2980 2979 2978 2977 2976 2976 2976 2976 2978 2981 2984 2988 2992 2993 2994 2996 2998 3002 3007 3011 3014 3017 3019 3022 3023 3027 3030 3031 3031 3033 3038 3043 3047 3050 3054 3059 3062 3063 3065 3067 3069 3071 3072 3073 3074 3071 3068 3069 3072 3072 3069 3066 3067 3070 3073 3078 3081 3084 3086 3088 3090 3092 3095 3097 3099 3100
3025 3023 3020 3018 3016 3014 3011 3008 3005 3003 3001 3000 2998 2997 2996 2995 2994 2994 2992 2986 2981 2979 2978 2977 2976 2975 2975 2975 2975 2976 2977 2980 2983 2986 2989 2992 2994 2996 2998 3001 3004 3008 3013 3015 3017 3019 3023 3026 3027 3027 3031 3035 3038 3041 3045 3050 3054 3058 3060 3063 3064 3065 3067 3070 3069 3071 3070 3066 3066 3067 3069 3069 3065 3061 3064 3068 3073 3076 3079 3081 3083 3084 3086 3089 3092 3094 3096 3097
3024 3022 3019 3017 3016 3013 3011 3008 3006 3004 3002 3000 2999 2997 2996 2995 2993 2992 2988 2984 2981 2978 2976 2975 2973 2972 2973 2974 2974 2975 2976 2978 2980 2983 2986 2990 2992 2993 2995 2998 3000 3003 3006 3009 3013 3016 3019 3021 3023 3027 3031 3033 3036 3039 3044 3048 3051 3054 3057 3060 3062 3063 3065 3067 3066 3065 3064 3063 3064 3065 3066 3064 3060 3060 3064 3068 3072 3075 3076 3079 3081 3082 3084 3086 3089 3091 3093 3095
3024 3022 3019 3017 3016 3014 3011 3009 3006 3004 3002 3000 2999 2997 2996 2995 2993 2989 2985 2984 2981 2978 2976 2974 2971 2970 2971 2972 2973 2974 2976 2978 2980 2983 2985 2988 2991 2993 2994 2996 2999 3001 3003 3006 3011 3015 3017 3020 3023 3026 3028 3029 3032 3034 3037 3041 3044 3047 3050 3054 3056 3058 3061 3063 3063 3062 3061 3061 3062 3063 3063 3060 3057 3060 3063 3066 3070 3072 3074 3077 3079 3080 3082 3084 3087 3089 3092 3094
3024 3022 3019 3017 3015 3014 3012 3009 3007 3004 3002 3000 2998 2997 2996 2994 2991 2987 2985 2983 2980 2977 2975 2973 2970 2969 2969 2971 2973 2975 2977 2979 2981 2984 2985 2987 2990 2992 2993 2995 2998 3001 3004 3007 3010 3012 3014 3015 3016 3019 3022 3025 3028 3030 3033 3037 3041 3044 3048 3052 3053 3053 3056 3059 3059 3059 3060 3060 3059 3061 3061 3058 3056 3059 3062 3066 3069 3070 3072 3074 3076 3078 3080 3082 3086 3088 3090 3093
3024 3022 3019 3017 3015 3013 3011 3009 3006 3004 3002 2999 2998 2996 2995 2992 2989 2986 2984 2982 2980 2977 2975 2973 2971 2970 2970 2972 2974 2976 2978 2979 2981 2984 2985 2987 2988 2989 2990 2992 2995 3000 3003 3006 3008 3010 3012 3011 3012 3017 3021 3024 3026 3030 3034 3038 3041 3043 3047 3050 3049 3050 3054 3056 3056 3055 3056 3057 3057 3057 3057 3055 3056 3059 3061 3065 3067 3068 3070 3071 3073 3075 3077 3081 3085 3087 3089 3092
3023 3021 3019 3017 3015 3013 3011 3009 3006 3004 3001 2999 2997 2995 2993 2991 2988 2986 2984 2982 2980 2977 2975 2973 2972 2971 2972 2974 2976 2977 2979 2980 2983 2984 2985 2986 2987 2988 2990 2992 2995 2998 3001 3003 3006 3008 3010 3011 3013 3017 3021 3023 3026 3029 3033 3035 3037 3041 3044 3043 3044 3050 3055 3054 3053 3053 3054 3055 3055 3054 3054 3054 3055 3057 3059 3062 3064 3065 3067 3069 3071 3073 3076 3081 3084 3086 3089 3091
3023 3020 3018 3016 3015 3013 3011 3008 3005 3003 3000 2998 2996 2994 2992 2989 2987 2986 2984 2982 2980 2978 2977 2975 2973 2973 2974 2975 2976 2978 2979 2981 2983 2985 2985 2986 2987 2987 2990 2993 2995 2998 3000 3003 3006 3008 3010 3012 3013 3016 3019 3022 3025 3029 3032 3034 3035 3038 3039 3040 3046 3053 3054 3052 3052 3052 3053 3055 3053 3051 3052 3052 3053 3054 3056 3059 3061 3063 3065 3068 3070 3072 3076 3080 3083 3085 3088 3089
3021 3019 3017 3015 3014 3012 3009 3006 3003 3001 2999 2997 2995 2993 2990 2988 2986 2984 2983 2982 2980 2978 2978 2977 2975 2975 2975 2976 2977 2978 2979 2980 2982 2984 2985 2986 2986 2986 2989 2992 2995 2997 3000 3003 3006 3008 3011 3012 3013 3015 3018 3021 3025 3028 3031 3032 3034 3036 3038 3041 3046 3048 3047 3049 3051 3051 3052 3054 3053 3051 3051 3051 3051 3052 3054 3056 3058 3061 3063 3066 3069 3071 3075 3078 3081 3083 3085 3087
3020 3018 3016 3014 3012 3009 3007 3004 3002 3000 2998 2997 2995 2992 2989 2987 2985 2983 2982 2981 2980 2979 2978 2978 2977 2976 2975 2976 2978 2979 2979 2980 2981 2983 2984 2985 2986 2986 2988 2992 2994 2997 3000 3003 3005 3007 3009 3011 3011 3014 3017 3020 3023 3024 3025 3027 3031 3035 3038 3041 3042 3043 3045 3047 3049 3049 3049 3052 3053 3052 3051 3051 3051 3051 3053 3055 3057 3059 3062 3064 3068 3071 3074 3076 3079 3082 3083 3085
3019 3017 3015 3012 3010 3008 3006 3004 3002 3001 2999 2997 2994 2991 2988 2985 2983 2982 2982 2981 2980 2979 2979 2978 2977 2977 2976 2977 2978 2979 2979 2980 2980 2982 2983 2984 2985 2985 2987 2991 2994 2996 3000 3002 3004 3006 3008 3009 3010 3012 3015 3018 3018 3018 3020 3024 3028 3031 3034 3036 3038 3042 3044 3045 3047 3048 3047 3049 3051 3052 3052 3050 3050 3050 3052 3053 3056 3059 3061 3063 3067 3070 3072 3075 3078 3080 3082 3084
3018 3016 3014 3012 3009 3008 3006 3004 3003 3001 2999 2996 2993 2990 2988 2985 2982 2981 2980 2980 2979 2979 2979 2978 2978 2977 2977 2978 2979 2979 2979 2980 2980 2981 2983 2984 2984 2985 2986 2989 2992 2996 3000 3002 3003 3005 3007 3008 3009 3010 3012 3014 3015 3017 3022 3026 3028 3030 3032 3034 3036 3040 3043 3044 3046 3046 3046 3046 3048 3050 3051 3050 3049 3050 3050 3053 3056 3059 3061 3063 3065 3068 3071 3074 3077 3079 3081 3083
3018 3016 3014 3011 3009 3007 3006 3004 3003 3001 2999 2996 2994 2991 2987 2985 2982 2981 2980 2980 2979 2979 2979 2978 2978 2977 2978 2979 2979 2979 2979 2979 2980 2981 2982 2983 2984 2985 2987 2989 2992 2997 3000 3002 3003 3005 3006 3008 3009 3009 3010 3013 3017 3020 3023 3026 3029 3031 3033 3034 3037 3039 3041 3043 3044 3044 3044 3045 3046 3048 3049 3049 3048 3049 3050 3052 3056 3058 3061 3063 3065 3068 3070 3074 3076 3078 3080 3082
3017 3015 3014 3012 3009 3007 3005 3003 3002 3001 2999 2996 2994 2991 2988 2985 2983 2982 2982 2981 2980 2980 2979 2979 2979 2978 2979 2980 2979 2979 2979 2979 2980 2981 2982 2983 2984 2985 2988 2990 2993 2997 3000 3002 3003 3005 3006 3008 3008 3008 3011 3015 3019 3021 3024 3026 3028 3029 3031 3033 3035 3037 3039 3042 3043 3043 3043 3044 3045 3047 3048 3047 3047 3048 3049 3052 3055 3058 3061 3064 3065 3067 3070 3073 3075 3077 3079 3081
3017 3015 3014 3011 3008 3007 3006 3003 3001 3000 2998 2996 2994 2991 2988 2986 2985 2984 2983 2982 2981 2981 2980 2980 2980 2980 2980 2981 2980 2981 2981 2981 2981 2982 2983 2984 2983 2984 2988 2991 2994 2996 2999 3001 3003 3005 3005 3006 3006 3006 3010 3015 3018 3020 3021 3023 3024 3025 3027 3030 3033 3036 3039 3041 3043 3043 3043 3043 3044 3046 3047 3046 3047 3048 3050 3052 3055 3058 3061 3063 3066 3067 3069 3071 3074 3076 3078 3080
3016 3015 3014 3011 3008 3007 3006 3004 3002 3000 2998 2997 2993 2990 2988 2988 2987 2986 2984 2983 2982 2982 2981 2981 2981 2981 2981 2981 2981 2982 2982 2982 2982 2983 2983 2984 2983 2983 2986 2990 2993 2996 2998 3000 3003 3005 3005 3005 3005 3004 3006 3009 3012 3014 3014 3017 3019 3022 3025 3028 3032 3035 3037 3040 3041 3042 3043 3043 3044 3045 3045 3045 3046 3048 3049 3051 3054 3058 3061 3063 3066 3068 3069 3071 3073 3075 3077 3080
3016 3014 3013 3010 3009 3008 3007 3005 3003 3001 2999 2997 2994 2990 2989 2988 2988 2987 2985 2984 2983 2982 2982 2982 2982 2982 2982 2982 2982 2983 2983 2983 2983 2983 2983 2984 2983 2983 2985 2989 2993 2995 2998 3000 3002 3005 3004 3003 3004 3005 3005 3007 3009 3011 3013 3015 3018 3020 3023 3027 3031 3034 3036 3038 3039 3040 3042 3043 3044 3044 3044 3045 3046 3047 3049 3050 3053 3057 3060 3062 3064 3066 3068 3070 3072 3074 3076 3078
3017 3014 3012 3010 3009 3008 3007 3005 3004 3003 3001 2998 2995 2993 2991 2989 2988 2987 2986 2985 2984 2983 2983 2983 2982 2982 2982 2983 2983 2983 2984 2984 2984 2984 2984 2983 2983 2983 2985 2989 2993 2996 2999 3001 3002 3004 3004 3003 3004 3006 3007 3009 3010 3012 3014 3016 3018 3020 3024 3027 3030 3033 3035 3037 3037 3039 3041 3042 3043 3044 3044 3045 3045 3046 3048 3049 3052 3056 3059 3061 3063 3065 3067 3069 3070 3072 3074 3077
3020 3017 3014 3012 3010 3009 3006 3005 3004 3003 3001 2999 2997 2995 2993 2990 2989 2987 2986 2985 2985 2984 2983 2983 2983 2983 2983 2983 2983 2984 2984 2984 2984 2984 2984 2984 2983 2984 2986 2990 2994 2997 3001 3002 3001 3003 3005 3005 3005 3006 3008 3010 3012 3014 3016 3017 3018 3021 3025 3028 3030 3032 3034 3035 3037 3038 3040 3041 3043 3044 3045 3045 3045 3046 3047 3049 3052 3056 3060 3063 3065 3065 3066 3068 3069 3070 3073 3075
3021 3019 3016 3014 3012 3010 3008 3006 3004 3003 3001 2999 2997 2996 2994 2991 2990 2989 2987 2986 2985 2985 2984 2983 2983 2983 2983 2984 2984 2984 2984 2984 2984 2984 2984 2984 2984 2985 2988 2992 2996 2999 3001 3002 3002 3004 3005 3005 3006 3008 3009 3011 3013 3014 3016 3017 3019 3022 3025 3027 3030 3032 3033 3034 3036 3038 3039 3040 3042 3044 3045 3046 3047 3047 3048 3049 3052 3055 3059 3062 3065 3065 3066 3066 3067 3069 3071 3073
3020 3018 3016 3015 3013 3011 3009 3006 3004 3003 3001 2999 2997 2995 2994 2993 2991 2990 2989 2988 2987 2986 2985 2984 2984 2984 2984 2984 2984 2985 2985 2985 2985 2985 2985 2986 2986 2986 2989 2992 2996 2999 3001 3002 3003 3005 3005 3005 3006 3007 3009 3011 3012 3013 3014 3016 3019 3021 3024 3026 3029 3031 3032 3033 3035 3036 3038 3040 3041 3042 3044 3046 3047 3047 3048 3050 3053 3055 3058 3061 3064 3065 3065 3066 3067 3068 3070 3072
3021 3019 3017 3015 3012 3011 3009 3007 3005 3003 3001 2999 2997 2995 2994 2994 2992 2991 2990 2989 2989 2988 2986 2985 2985 2984 2984 2984 2984 2985 2985 2985 2985 2986 2987 2987 2987 2988 2989 2992 2996 2999 3001 3002 3003 3004 3004 3004 3005 3007 3009 3011 3012 3013 3014 3016 3018 3021 3023 3025 3027 3029 3031 3032 3034 3035 3037 3039 3040 3042 3044 3045 3046 3047 3048 3050 3053 3056 3058 3060 3062 3063 3065 3066 3067 3068 3069 3071
3022 3021 3018 3015 3013 3011 3009 3007 3005 3003 3001 3000 2998 2996 2995 2994 2993 2992 2990 2989 2989 2989 2987 2986 2985 2984 2984 2984 2984 2984 2984 2984 2985 2987 2987 2987 2989 2989 2990 2992 2996 2999 3001 3002 3003 3004 3004 3005 3005 3007 3009 3011 3012 3013 3014 3015 3018 3020 3021 3023 3025 3027 3029 3031 3033 3035 3037 3038 3040 3042 3045 3047 3047 3046 3047 3050 3052 3055 3057 3058 3060 3062 3064 3065 3066 3067 3069 3071